Terminal Aerodrome Forecast
Issued by NWS

Home | Current Version | Previous Version | Text Only | Print | Product List | Glossary On
Versions: 1 2 3 4 5 6 7 8 9 10 11 12 13 14 15
813
FTUS43 KMQT 071139
TAFIWD
TAF
KIWD 071139Z 0712/0812 20010KT P6SM -SN BKN025
     FM071600 22009KT 5SM -SN OVC014
     FM072000 25009KT 1 1/2SM -SN OVC007
     FM080300 28008KT 1 1/2SM -SN OVC005
     FM080500 32008KT 1SM -SN OVC007
      AMD LTD TO CLD VIS AND WIND=

USA.gov is the U.S. government's official web portal to all federal, state and local government web resources and services.